Location: St. Louis
(38.6270°N, 90.1994°W)
Time: 22:13:08
(UTC-05:00)

RS-15 - Pass Details

Date: 30 January 2022
Orbit: 1881 x 2163 km, 64.8° (Epoch: 19 May)

Event Time Altitude Azimuth Distance (km) Brightness Sun altitude
Rises 18:27:19 0° 237° (WSW) 5,408 11.8 -13.3°
Reaches altitude 10° 18:30:50 10° 243° (WSW) 4,447 11.2 -14.0°
Maximum altitude 18:41:48 46° 315° (NW) 2,623 8.9 -16.1°
Drops below altitude 10° 18:53:24 10° 26° (NNE) 4,658 9.7 -18.3°
Sets 18:57:13 0° 33° (NNE) 5,682 10.1 -19.0°
